Zurück zum Katalog

STARLINK-2465

AktivKommunikationVLEO
NORAD 48124·PAYLOAD·🇺🇸 United States

Gestartet Apr 7, 2021 von Cape Canaveral Space Force Station

Loading…

Nächste Überflüge (nächste 24 Stunden)

TLE

AktuellSource: CelesTrak SupGP

Epoche: Sep 15, 2026, 02:20 UTC

1 48124C 21027AJ  26258.09770833  .00045388  00000+0  14595-2 0  2582
2 48124  53.1586 353.5021 0001275 108.6928 277.9629 15.31680299    14

Verfolge STARLINK-2465 in Echtzeit mit AllMySat

Download on the App Store